Terminal Aerodrome Forecast
Issued by NWS Charleston, WV

Current Version | Previous Version | Graphics & Text | Print | Product List | Glossary On
Versions: 1 2 3 4 5 6 7 8 9 10 11 12 13 14 15 16 17 18 19 20 21 22 23 24
000
FTUS41 KRLX 012243 AAA
TAFCRW
TAF AMD
KCRW 012243Z 0123/0218 23008G20KT 6SM SHRA VCTS BKN035CB
      TEMPO 0123/0201 2SM TSRA BR SCT007 BKN012CB OVC025
     FM020100 VRB03KT P6SM -SHRA VCTS BKN040CB
     FM021100 22004KT 3SM BR BKN014=

USA.gov is the U.S. government's official web portal to all federal, state and local government web resources and services.